Weather in Temirlanovka

Kazakhstan     42˚35′56″N   69˚15′22″E
temp.,
°C
wind,
m/s
gust,
m/s
humid.,
%
clouds,
%
prec.,
mm/h
press.,
hPa
HPBL,
m
3 december, thu
thu300:00+1˚se117526 0.0 102822
03:00+1˚sw118091 0.0 102822
06:00w117975 0.0 103022
09:00−1˚w11785 0.0 103021
12:00+2˚wnw22622 0.0 1030254
15:00+3˚nw225531 0.0 1029478
18:00n116739 0.0 103022
21:00−1˚nnw127153 0.0 103021
4 december, fri
fri400:00−2˚nw227572 0.0 103037
03:00−4˚nw227535 0.0 103033
06:00−5˚wnw227118 0.0 103134
09:00−6˚w11700 0.0 103124
12:00−2˚w225250 0.0 1031320
15:00wnw234299 0.0 1030522
18:00−4˚nw225363 0.0 103121
21:00−5˚nw11570 0.0 103221
5 december, sat
sat500:00−6˚wsw00580 0.0 103121
03:00−6˚s12590 0.0 103121
06:00−6˚s11610 0.0 103221
09:00−6˚s11610 0.0 103221
12:00−2˚wsw12470 0.0 1031476
15:00−1˚wnw22410 0.0 1030749
18:00−4˚nnw22560 0.0 103121
21:00−5˚n23710 0.0 103245
6 december, sun
sun600:00−6˚n22730 0.0 103221
03:00−6˚ne12740 0.0 103221
06:00−6˚ne12750 0.0 103121
09:00−5˚ne11710 0.0 103221
12:00−1˚nnw115112 0.0 1031221
15:00+2˚nnw21456 0.0 1029309
18:00−1˚n22603 0.0 102921
21:00−2˚n12640 0.0 102821
7 december, mon
mon700:00−3˚nnw22669 0.0 102721
03:00−3˚nnw226594 0.0 102627
06:00−4˚nw226597 0.0 102524
09:00−3˚wnw1263100 0.0 102650
12:00−2˚w1261100 0.1 1027297
15:00−3˚wnw2392100 1.6 1027231
18:00−3˚wsw1292100 3.0 1028187
21:00−4˚wsw127284 0.1 103051